Bush, KY

11:30 PM EDT on August 26, 2016 (GMT -0400)
London-Corbin / McKee

Weather History for KLOZ - April, 2013

Change the Weather History Date:

Thursday, April 4, 2013

  Actual Average Record
Temperature  
Mean Temperature 42 °F 53 °F  
Max Temperature 45 °F 65 °F 82 °F (1986)
Min Temperature 39 °F 41 °F 26 °F (1962)
Degree Days  
Heating Degree Days 23 12  
Month to date heating degree days 90 51  
Since 1 July heating degree days 4230 3876  
Cooling Degree Days 0 0  
Month to date cooling degree days 0 0  
Year to date cooling degree days 0 3  
Moisture  
Dew Point 30 °F    
Average Humidity 60    
Maximum Humidity 93    
Minimum Humidity 27    
Precipitation  
Precipitation 0.25 in 0.12 in 2.75 in (1977)
Month to date precipitation 0.25 0.51  
Year to date precipitation 12.49  
Sea Level Pressure  
Sea Level Pressure 30.09 in    
Wind  
Wind Speed 3 mph (East)    
Max Wind Speed 10 mph    
Max Gust Speed 14 mph    
Visibility 10 miles    
Events Rain    
T = Trace of Precipitation, MM = Missing Value Source: NWS Daily Summary

Daily Weather History Graph

Daily Weather History Graph

Search for Another Location

Airport or City:

Trip Planner

Search our weather history database for the weather conditions in past years. The results will help you decide how hot, cold, wet, or windy it might be!

Date:

Astronomy

Apr. 04, 2013 Rise Set
Actual Time 7:17 AM EDT 8:01 PM EDT
Civil Twilight 6:50 AM EDT 8:28 PM EDT
Nautical Twilight 6:19 AM EDT 8:59 PM EDT
Astronomical Twilight 5:48 AM EDT 9:31 PM EDT
Moon 3:35 AM EDT (4/4) 2:26 PM EDT (4/4)
Length of Visible Light 13h 37m
Length of Day
12h 44m
Waning Crescent, 34% of the Moon is Illuminated
Apr 4
Waning Crescent
Apr 10
New
Apr 18
First Quarter
Apr 25
Full
May 2
Last Quarter

Hourly Weather History & Observations

Time (EDT) Temp. Windchill Dew Point Humidity Pressure Visibility Wind Dir Wind Speed Gust Speed Precip Events Conditions
12:53 AM 43.0 °F 38.2 °F 10.9 °F 27% 30.22 in 10.0 mi ENE 8.1 mph - N/A   Clear
1:53 AM 42.1 °F 38.4 °F 12.0 °F 29% 30.22 in 10.0 mi ENE 5.8 mph - N/A   Clear
2:53 AM 39.9 °F 35.1 °F 12.0 °F 32% 30.20 in 10.0 mi NE 6.9 mph - N/A   Clear
3:53 AM 39.9 °F 35.8 °F 12.9 °F 33% 30.18 in 10.0 mi NNE 5.8 mph - N/A   Clear
4:53 AM 39.0 °F 34.8 °F 12.9 °F 34% 30.16 in 10.0 mi NE 5.8 mph - N/A   Clear
5:53 AM 39.0 °F 36.8 °F 12.0 °F 33% 30.15 in 10.0 mi NE 3.5 mph - N/A   Clear
6:53 AM 39.0 °F 34.8 °F 12.9 °F 34% 30.14 in 10.0 mi NE 5.8 mph - N/A   Partly Cloudy
7:53 AM 39.0 °F 35.7 °F 14.0 °F 36% 30.14 in 10.0 mi ENE 4.6 mph - N/A   Clear
8:53 AM 41.0 °F 36.4 °F 15.1 °F 35% 30.13 in 10.0 mi NE 6.9 mph - N/A   Partly Cloudy
9:53 AM 43.0 °F 40.3 °F 16.0 °F 34% 30.11 in 10.0 mi ENE 4.6 mph - N/A   Overcast
10:53 AM 45.0 °F 43.5 °F 18.0 °F 34% 30.11 in 10.0 mi ENE 3.5 mph - N/A   Overcast
11:53 AM 44.1 °F - 24.1 °F 45% 30.13 in 10.0 mi Calm Calm - 0.00 in Rain Light Rain
12:53 PM 41.0 °F - 33.1 °F 73% 30.14 in 8.0 mi Calm Calm - 0.04 in Rain Light Rain
1:53 PM 39.9 °F - 35.1 °F 83% 30.10 in 7.0 mi Calm Calm - 0.08 in Rain Light Rain
2:53 PM 41.0 °F 39.0 °F 39.0 °F 93% 30.08 in 5.0 mi ESE 3.5 mph - 0.07 in Rain Light Rain
3:15 PM 41.0 °F 39.0 °F 39.2 °F 93% 30.07 in 6.0 mi ESE 3.5 mph - 0.02 in Rain Light Rain
3:23 PM 42.8 °F 40.1 °F 39.2 °F 87% 30.06 in 7.0 mi Variable 4.6 mph - 0.03 in Rain Light Rain
3:53 PM 43.0 °F 39.5 °F 39.9 °F 89% 30.06 in 10.0 mi SE 5.8 mph - 0.04 in Rain Light Rain
4:20 PM 42.8 °F 39.3 °F 39.2 °F 87% 30.04 in 10.0 mi SE 5.8 mph - 0.01 in Rain Light Rain
4:29 PM 42.8 °F 39.3 °F 39.2 °F 87% 30.04 in 10.0 mi SSE 5.8 mph - 0.01 in Rain Light Rain
4:53 PM 43.0 °F 38.2 °F 39.9 °F 89% 30.05 in 10.0 mi SE 8.1 mph - 0.01 in Rain Light Rain
5:53 PM 43.0 °F 41.3 °F 39.9 °F 89% 30.04 in 10.0 mi SE 3.5 mph - 0.01 in   Overcast
6:53 PM 44.1 °F 40.1 °F 41.0 °F 89% 30.03 in 10.0 mi SE 6.9 mph - N/A   Overcast
7:04 PM 44.6 °F 43.1 °F 41.0 °F 87% 30.01 in 10.0 mi Variable 3.5 mph - N/A   Overcast
7:53 PM 44.1 °F - 41.0 °F 89% 30.03 in 10.0 mi Calm Calm - N/A   Overcast
8:53 PM 43.0 °F - 39.9 °F 89% 30.02 in 10.0 mi Calm Calm - 0.00 in   Overcast
9:26 PM 42.8 °F - 39.2 °F 87% 30.01 in 10.0 mi Calm Calm - N/A   Overcast
9:46 PM 42.8 °F - 39.2 °F 87% 30.00 in 10.0 mi Calm Calm - N/A   Overcast
9:53 PM 43.0 °F - 39.9 °F 89% 30.01 in 10.0 mi Calm Calm - N/A   Overcast
10:53 PM 42.1 °F - 39.9 °F 92% 30.01 in 10.0 mi Calm Calm - N/A   Overcast
11:53 PM 43.0 °F - 39.9 °F 89% 30.01 in 10.0 mi Calm Calm - N/A   Overcast